(51) Nemausa
ephemeris date magn radius delta ra dec elong phase
Today9 Jun 202610.92.351 AU1.382 AU18h11m-06°16'157.2°9.6°
Opposition21 Jun 202610.82.360 AU1.370 AU17h59m-06°07'162.7°7.4°
(51) Nemausa - 2026-06-09
astro.vanbuitenen.nl


 
-1 year
-1 month
-1 day
Now
+1 day
+1 month
+1 year

The interactive orbit chart above shows the body's path through the solar system and its position at the given date. Green and blue lines are shown perpendicular to the ecliptic plane: Green if the path is above the ecliptic plane, blue if it is below. (Left-click and drag to rotate the view; Right-click and drag to move the view; Use scroll wheel to zoom in our out.)

The orbital elements of Nemausa are:

            e (Eccentricity)                : 0.0660171
            a (Semimajor axis)              : 2.3659296
            i (Inclination)                 : 9.97259
            Ω (Longitude of ascending node) : 175.87525
            ω (Argument of perihelion)      : 2.39770
            M (Mean anomaly)                : 80.61020
            Epoch                           : 2026 Jun 09

            L (Longitude of perihelion)     : 178.23676
            B (Latitude of perihelion)      : 0.41511
            P (Orbital period in years)     : 3.64            
        

The light curve chart below shows the estimated development of the minor planet's magnitude.


The all-sky chart below shows the path of the minor planet over the same period as the light curve. The current position is marked yellow.





The following chart shows the path of the minor planet in the next few days. The field of view is optimized for (~10x50) binoculars and finderscopes.




Ephemerides:
Date       Time       RA (2000)    DEC (2000)    delta   radius  elong  phase   PA    magn
2026-06-09 00:00 UT   18 11 40.5   -06 16 32     1.382    2.351  157.2    9.6   221   10.9 
2026-06-09 10:37 UT   18 11 17.1   -06 15 44     1.381    2.351  157.6    9.5   220   10.9 
2026-06-10 00:00 UT   18 10 47.4   -06 14 46     1.379    2.351  158.0    9.3   219   10.9 
2026-06-11 00:00 UT   18 09 53.4   -06 13 11     1.377    2.352  158.7    9.0   217   10.9 
2026-06-12 00:00 UT   18 08 58.8   -06 11 47     1.375    2.353  159.3    8.8   214   10.9 
2026-06-13 00:00 UT   18 08 03.4   -06 10 34     1.374    2.354  159.9    8.5   211   10.9 
2026-06-14 00:00 UT   18 07 07.5   -06 09 33     1.372    2.354  160.5    8.3   208   10.8 
2026-06-15 00:00 UT   18 06 11.0   -06 08 42     1.371    2.355  161.0    8.1   205   10.8 
2026-06-16 00:00 UT   18 05 14.1   -06 08 04     1.371    2.356  161.4    7.9   201   10.8 
2026-06-17 00:00 UT   18 04 16.9   -06 07 36     1.370    2.357  161.8    7.7   198   10.8 
2026-06-18 00:00 UT   18 03 19.3   -06 07 20     1.370    2.357  162.1    7.6   194   10.8 
2026-06-19 00:00 UT   18 02 21.5   -06 07 16     1.369    2.358  162.4    7.5   190   10.8 
2026-06-20 00:00 UT   18 01 23.6   -06 07 23     1.370    2.359  162.6    7.4   187   10.8 
2026-06-21 00:00 UT   18 00 25.7   -06 07 41     1.370    2.359  162.7    7.4   183   10.8 
2026-06-22 00:00 UT   17 59 27.7   -06 08 11     1.371    2.360  162.7    7.4   179   10.8 
2026-06-23 00:00 UT   17 58 29.9   -06 08 52     1.371    2.361  162.6    7.4   175   10.8 
2026-06-24 00:00 UT   17 57 32.2   -06 09 45     1.373    2.362  162.5    7.4   171   10.8 
2026-06-25 00:00 UT   17 56 34.8   -06 10 49     1.374    2.362  162.3    7.5   167   10.8 
2026-06-26 00:00 UT   17 55 37.6   -06 12 04     1.375    2.363  162.0    7.6   163   10.8 
2026-06-27 00:00 UT   17 54 40.9   -06 13 30     1.377    2.364  161.7    7.8   160   10.8 
2026-06-28 00:00 UT   17 53 44.6   -06 15 07     1.379    2.365  161.3    7.9   156   10.8 
2026-06-29 00:00 UT   17 52 48.8   -06 16 54     1.382    2.365  160.8    8.1   153   10.9 
2026-06-30 00:00 UT   17 51 53.6   -06 18 53     1.384    2.366  160.3    8.3   150   10.9 
2026-07-01 00:00 UT   17 50 59.1   -06 21 02     1.387    2.367  159.7    8.6   147   10.9 
2026-07-02 00:00 UT   17 50 05.2   -06 23 21     1.390    2.368  159.1    8.8   144   10.9 
2026-07-03 00:00 UT   17 49 12.2   -06 25 51     1.393    2.368  158.4    9.1   142   10.9 
2026-07-04 00:00 UT   17 48 19.9   -06 28 30     1.397    2.369  157.7    9.4   139   10.9 
2026-07-05 00:00 UT   17 47 28.6   -06 31 20     1.401    2.370  157.0    9.7   137   11.0 
2026-07-06 00:00 UT   17 46 38.2   -06 34 20     1.405    2.371  156.2   10.0   135   11.0 
2026-07-07 00:00 UT   17 45 48.8   -06 37 29     1.409    2.371  155.4   10.3   133   11.0 
2026-07-08 00:00 UT   17 45 00.5   -06 40 47     1.413    2.372  154.6   10.6   131   11.0 
2026-07-09 00:00 UT   17 44 13.3   -06 44 15     1.418    2.373  153.8   10.9   129   11.0 


    Terminology:
            
    delta:  distance between minor planet and earth in AU
    radius: distance between minor planet and sun in AU
    magn:   magnitude (brightness) estimate    
    ra:     right ascension in hours (24h = 360deg)
    dec:    declination in degrees
    elong:  elongation in degrees (angle sun-earth-minor planet)    
    phase:  phase angle in degrees (angle sun-minor planet-earth)        
    AU:     Astronomical Unit (mean distance between earth and sun: 149597870.7 km
    

Orbital elements provided by the MPC (Minor Planet Center).
Calculations by a modified version of AAPlus, a C# implementation of the AA+ project by PJ Naughter from the algorithms presented in the book "Astronomical Algorithms" by Jean Meeus.
NGC2000 dso catalog and star labels from VizieR as provided by the Strasbourg astronomical Data Center.
Tycho2 catalog from the ESO archive.